Погода в Масловке

Россия / Республика Татарстан     55°26′06″N   50°00′28″E
темп.,
°C
ветер,
м/с
пор.,
м/с
влажн.,
%
обл.,
%
осадки,
мм/ч
давл.,
гПа
погр.,
м
4 марта, чт
чт400:00−8з489497 0.0 1004256
03:00−9юз599598 0.1 1003208
06:00−7юз6119599 0.9 1000356
09:00−3юз7119699 1.3 999503
12:00−1юз101495100 0.8 995913
15:000юз101692100 2.4 992918
18:000з91683100 1.0 992963
21:00−3з7158493 1.0 995473
5 марта, пт
пт500:00−6з5109289 0.0 996254
03:00−8зсз479495 0.0 999142
06:00−11сз339499 0.0 100151
09:00−11ссз359368 0.0 1003133
12:00−9сз24870 0.0 1004246
15:00−8з22900 0.0 100634
18:00−12зюз34930 0.0 100831
21:00−13зюз34930 0.0 101041
6 марта, сб
сб600:00−13зюз34950 0.0 101037
03:00−14юз34949 0.0 101037
06:00−12зюз359797 0.4 1011109
09:00−11зсз359597 0.5 1012190
12:00−10ссз348999 0.1 1012474
15:00−11сз349099 0.1 1012349
18:00−14сз2396100 0.1 101239
21:00−18сз239484 0.1 101320
7 марта, вс
вс700:00−19зсз239875 0.0 101320
03:00−20з2310069 0.0 101321
06:00−20зюз3310038 0.0 101323
09:00−16ююз469661 0.1 1012210
12:00−13ююз589499 0.0 1010313
15:00−10ююз6119199 0.1 1007621
18:00−9ю81492100 0.2 1004587
21:00−7ююз81595100 1.4 1001889
8 марта, пн
пн800:00−6ююз91694100 1.6 996888
03:00−6з91488100 3.2 995735
06:00−12зюз6148464 0.0 997316
09:00−11юз7128649 0.0 1000392
12:00−8юз6118033 0.0 1001451
15:00−8ю498457 0.0 1000269
18:00−9вюв3388100 0.0 99835
21:00−10ссв2396100 0.1 99821